VK3TI-1 Weather Reports


time (UTC)temp
C
wind
direction
speed
KPH
gust
KPH
rain 1hr
cm
rain 24hr
cm
rain mn
cm
humidity
%
barometer
mb
20260504050007 17 345 19.3 37.0 0.00 0.10 0.00 55 1009.4
20260504044512 17 309 14.5 35.4 0.00 0.10 0.00 54 1009.5
20260504043011 17 298 11.3 33.8 0.00 0.10 0.00 54 1009.4
20260504041508 17 333 22.5 45.1 0.00 0.10 0.00 53 1009.6
20260504040002 17 5 16.1 35.4 0.00 0.10 0.00 54 1009.8
20260504034501 17 338 14.5 33.8 0.00 0.10 0.00 54 1009.7
20260504033100 17 346 12.9 35.4 0.00 0.10 0.00 54 1010.0
20260504031559 17 5 22.5 41.8 0.00 0.10 0.00 53 1010.0
20260504030056 17 342 9.7 40.2 0.00 0.10 0.00 56 1010.2
20260504024555 17 306 17.7 40.2 0.00 0.10 0.00 56 1010.4
20260504023052 17 18 14.5 46.7 0.00 0.10 0.00 56 1010.4
20260504021553 17 302 12.9 40.2 0.00 0.10 0.00 56 1010.7
20260504020056 16 325 8.0 35.4 0.00 0.10 0.00 60 1010.8
20260504014547 16 340 6.4 24.1 0.00 0.51 0.00 61 1011.0
20260504013101 16 5 8.0 32.2 0.00 0.51 0.00 61 1011.1
20260504011543 17 346 14.5 35.4 0.00 0.51 0.00 60 1011.2
20260504010042 16 319 12.9 37.0 0.00 0.51 0.00 62 1011.3
20260504004539 16 30 6.4 29.0 0.00 0.99 0.00 63 1011.4
20260504003036 16 355 12.9 37.0 0.00 0.99 0.00 63 1011.3
20260504001537 16 355 17.7 33.8 0.00 0.99 0.00 63 1011.3
20260504000030 16 355 8.0 32.2 0.00 0.99 0.00 65 1011.4
20260503234626 16 336 11.3 27.4 0.00 1.07 0.00 66 1011.5
20260503233021 15 314 16.1 29.0 0.00 1.07 0.00 66 1011.5
20260503231517 15 336 11.3 29.0 0.00 1.07 0.00 68 1011.5
20260503230033 15 24 14.5 30.6 0.00 1.07 0.00 69 1011.8
20260503224509 14 336 8.0 25.7 0.00 1.07 0.00 72 1011.8
20260503223004 13 345 6.4 16.1 0.00 1.07 0.00 75 1011.9
20260503221609 13 347 3.2 17.7 0.00 1.07 0.00 77 1012.0
20260503220055 12 355 8.0 17.7 0.00 1.07 0.00 78 1012.0
20260503214552 12 346 4.8 19.3 0.00 1.07 0.00 79 1011.9
20260503213050 12 338 8.0 20.9 0.00 1.07 0.00 79 1011.8
20260503211550 12 360 1.6 17.7 0.00 1.07 0.00 79 1011.8
20260503210046 12 69 4.8 12.9 0.00 1.07 0.00 80 1011.9
20260503204558 12 321 1.6 14.5 0.00 1.07 0.00 80 1011.8
20260503203045 12 355 0.0 20.9 0.00 1.07 0.00 80 1011.5
20260503201540 12 348 1.6 16.1 0.00 1.07 0.00 80 1011.3
20260503200038 12 355 3.2 17.7 0.00 1.07 0.00 80 1011.4
20260503194541 12 338 3.2 14.5 0.00 1.07 0.00 79 1011.4
20260503193044 12 329 0.0 14.5 0.00 1.07 0.00 79 1011.7
20260503191559 12 31 3.2 16.1 0.00 1.07 0.00 80 1011.8
20260503190033 12 349 0.0 17.7 0.00 1.07 0.00 79 1011.8
20260503184526 12 346 3.2 20.9 0.00 1.07 0.00 80 1011.8
20260503183024 12 15 3.2 19.3 0.00 1.07 0.00 80 1011.9
20260503181522 12 323 3.2 20.9 0.00 1.07 0.00 82 1012.0
20260503180025 12 338 3.2 14.5 0.00 1.07 0.00 83 1012.2
20260503174516 12 316 3.2 16.1 0.00 1.07 0.00 83 1012.2
20260503173015 12 28 3.2 14.5 0.00 1.07 0.00 83 1012.3
20260503171514 12 360 4.8 14.5 0.00 1.07 0.00 84 1012.4
20260503081532 14 351 0.0 1.6 0.00 1.07 1.07 77 1011.5
20260503071514 16 325 0.0 8.0 0.00 1.07 1.07 76 1011.2
20260503054510 16 5 3.2 16.1 0.08 1.07 1.07 86 1010.8
20260503053010 16 335 0.0 9.7 0.08 1.04 1.04 85 1011.0